Flag for U.S.A. Weather past 2 weeks in Concord, California, U.S.A.

Now
55 °F

Clear.


Feels Like: 52 °F
Forecast: 51 / 79 °F
Wind: 9 mph from South

Location: Buchanan Field


UV Index: 5 (Moderate)

Visibility: 10 mi


Pressure: 30.07 "Hg

Humidity: 87%

Dew point: 51 °F

Location of ConcordLocation

Historic Weather in Concord

°F

Concord temperature yesterday

Maximum temperature yesterday: 70 °F (at 1:53 PM)
Minimum temperature yesterday: 50 °F (at 4:53 AM)
Average temperature yesterday: 59 °F

Past Weeks' High & Low Weather Summary

 TemperatureHumidityPressure
High82 °F (Apr 8, 4:53 PM)100% (Apr 5, 5:53 AM)30.20 "Hg (Apr 5, 5:53 AM)
Low43 °F (Apr 5, 5:53 AM)24% (Apr 19, 11:53 AM)29.75 "Hg (Apr 17, 5:53 AM)
Average62 °F67%29.95 "Hg
* Reported Apr 5 12:53 AM — Apr 20 12:53 AM, Concord, Weather by CustomWeather, © 2014

Note: Actual official high and low records may vary slightly from our data, if they occured in-between our weather recording intervals... More about our weather records

Advertising

Historic Weather Conditions — Data for Previous 24 hours

 ConditionsComfort  
Time TempWeatherWind HumidityBarometerVisibility
12:53 AM
Apr 20
55 °FClear.9 mph87%30.07 "Hg10 mi
11:53 PM
Apr 19
55 °FClear.10 mph87%30.06 "Hg10 mi
10:53 PM56 °FClear.12 mph84%30.06 "Hg10 mi
9:53 PM56 °FClear.13 mph84%30.05 "Hg10 mi
8:53 PM58 °FClear.9 mph78%30.05 "Hg10 mi
7:53 PM60 °FSunny.9 mph72%30.03 "Hg10 mi
6:53 PM63 °FSunny.12 mph65%30.03 "Hg10 mi
5:53 PM67 °FSunny.9 mph57%30.03 "Hg10 mi
4:53 PM68 °FSunny.15 mph55%30.03 "Hg10 mi
3:53 PM69 °FSunny.14 mph51%30.03 "Hg10 mi
2:53 PM69 °FSunny.10 mph47%30.03 "Hg10 mi
1:53 PM70 °FSunny.17 mph39%30.03 "Hg10 mi
12:53 PM69 °FSunny.16 mph26%30.02 "Hg10 mi
11:53 AM69 °FSunny.14 mph24%30.01 "Hg10 mi
10:53 AM64 °FSunny.9 mph49%30.01 "Hg10 mi
9:53 AM61 °FSunny.14 mph54%30.01 "Hg10 mi
8:53 AM56 °FSunny.15 mph67%29.99 "Hg10 mi
7:53 AM52 °FSunny.15 mph77%29.98 "Hg10 mi
6:53 AM50 °FClear.14 mph83%29.95 "Hg10 mi
5:53 AM50 °FClear.15 mph80%29.93 "Hg10 mi
4:53 AM50 °FClear.14 mph80%29.92 "Hg10 mi
3:53 AM51 °FClear.10 mph80%29.92 "Hg10 mi
2:53 AM51 °FClear.12 mph80%29.89 "Hg10 mi
Weather by CustomWeather, © 2014

See weather overview